Find Starlink 32175

NORAD ID: 60339 Int'l Des: 2024-136 Owner: SPXS Country: US Constellation: starlink operational
LEOCIRCULAR

当前视图

正在加载3D地球...

About Starlink 32175

Starlink 32175 (NORAD 60339) is a starlink constellation satellite (v2 mini) launched Aug 2, 2024 by SPXS of US. It operates in LEO, CIRCULAR orbit with a mass of 730.00 kg.

关于 Starlink 32175

正在加载描述...

即将过境

Passes for default location (London). Set your location on the main map for personalized predictions.

高度历史

Loading altitude history...

两行轨道根数

1 60339U 24136L 26195.33187635 .00001367 00000-0 58290-4 0 9991
2 60339 53.1589 207.4557 0001344 90.4729 269.6426 15.30197345109055
Epoch: Jul 14, 2026 • Age: 15 hours

当前状态

高度 487.7 km
远地点 / 近地点 N/A
速度 7.62 km/s
星下点 -36.71°S, 139.48°E
发射日期 Aug 2, 2024
运行时间 1.9 years
类型 internet

技术详情

分类 Payload
质量 730.00 kg
干质量 700.00 kg
总质量 730.00 kg
长度 0.30 m
直径 4.10 m
跨度 29.00 m
形状 Box + pan
制造商 SPXS
平台类型 Starlink V2M
阶段状态 In Orbit
所有者/国家 SPXS/US

Most Searched